GFSNW_925_rhum_090.txt.gz
RH
86 70 70 76 78 77 75 77 97 96 82 96 98 99 84 80 69 47 45 42 41 46 51 56 60 62 61 52 55 68 57 66 84 62 50 49 57 53 45 76 67 63 77 97
78 71 68 69 71 74 70 96 98 85 89 94 97 85 92 85 57 49 44 47 46 48 48 59 56 53 51 50 55 63 60 70 88 70 59 51 52 47 44 42 60 61 79 83
80 69 72 72 71 72 66 83 99 88 90 81 69 86 90 72 50 46 45 48 44 44 47 45 58 53 51 48 51 63 62 56 73 84 70 63 68 55 47 60 82 66 71 72
66 65 70 72 72 71 85 65 82 70 92 67 60 66 71 55 56 44 41 46 46 46 49 47 48 44 44 49 58 57 54 74 72 50 47 54 56 55 54 61 48 64 64 63
75 69 63 59 65 69 76 69 76 73 55 45 54 62 53 55 56 60 49 50 45 46 60 61 53 51 52 53 47 45 47 84 66 82 44 47 52 51 54 58 56 46 50 59
66 60 50 45 47 79 58 58 52 59 55 50 53 61 58 58 54 56 54 57 50 62 67 59 50 44 44 45 52 53 55 74 87 86 54 48 64 52 53 53 57 60 69 58
70 60 53 45 42 52 66 67 63 51 57 52 59 54 53 59 60 60 56 58 54 58 48 48 49 40 40 41 44 44 52 57 77 94 65 81 51 44 48 51 50 54 57 58
71 63 56 51 42 46 61 69 74 62 55 55 54 52 56 56 57 62 64 59 54 52 55 60 53 57 52 45 45 47 48 56 77 87 82 49 50 50 54 61 57 52 54 57
80 76 70 66 53 46 56 59 64 72 58 70 57 52 49 55 58 63 60 52 52 55 60 49 52 58 50 51 46 44 46 49 63 70 77 58 54 50 46 47 68 52 51 56
80 81 79 74 70 50 57 56 57 78 65 69 66 69 67 58 57 65 58 53 57 52 64 54 56 64 49 60 52 54 58 52 61 67 70 55 48 47 46 61 65 52 50 52
74 73 72 78 74 68 43 60 56 70 71 71 65 62 71 68 64 66 65 64 66 68 71 60 56 57 56 55 42 45 54 58 62 54 60 67 47 51 57 55 47 48 49 53
81 75 76 77 82 70 54 56 48 63 73 76 66 67 67 69 70 82 65 62 58 70 74 62 54 56 52 48 52 48 60 53 65 53 59 47 44 52 52 50 54 50 53 58
76 78 82 78 81 72 61 46 46 64 71 72 66 64 64 66 68 70 86 70 70 66 70 77 69 66 57 60 55 45 47 49 64 55 44 49 50 50 49 49 51 57 57 60
74 82 85 75 76 63 57 50 44 60 63 90 75 60 60 63 66 71 69 70 67 66 76 82 77 70 55 60 59 59 55 58 58 57 48 47 50 46 55 58 56 59 58 52
72 79 85 75 66 75 64 50 46 46 72 86 73 60 62 63 63 66 68 68 73 76 83 96 86 69 66 64 70 77 61 62 66 63 49 52 59 52 53 62 61 55 52 51
74 73 83 82 62 66 77 84 56 46 58 94 94 66 61 62 62 61 63 67 68 75 81 81 73 67 80 89 80 47 42 44 47 50 51 61 61 57 55 57 57 53 51 49
76 77 84 85 66 65 73 80 75 51 50 86 94 95 68 65 64 65 69 64 74 76 82 81 73 80 91 92 80 45 42 48 55 55 61 64 63 68 61 58 55 56 53 49
88 89 88 74 61 60 68 64 56 55 66 89 98 96 85 67 76 78 69 76 75 83 86 72 76 78 82 95 72 51 46 56 60 59 54 59 64 65 66 59 53 49 48 42
86 78 74 62 65 67 78 64 60 54 71 97 95 95 95 72 78 77 76 74 84 80 86 79 72 80 90 72 61 56 55 63 64 69 57 56 59 60 57 51 43 42 43 42
75 68 70 79 72 62 66 74 84 91 93 91 96 90 93 84 81 84 84 75 91 95 85 79 88 86 60 61 56 51 58 62 68 74 70 60 67 55 46 46 42 44 51 56
83 75 85 76 64 69 70 92 93 88 88 90 91 90 90 75 93 87 76 92 94 97 92 91 94 91 66 53 55 54 64 63 64 58 60 60 62 70 51 53 56 64 67 73
82 70 64 67 76 91 82 90 82 81 83 77 85 81 80 83 81 90 82 93 94 97 87 94 97 87 69 63 62 64 62 58 48 48 55 53 56 57 61 68 72 64 60 57
58 70 87 90 88 84 86 78 86 88 86 92 92 93 84 84 86 87 92 96 94 82 91 93 84 77 75 76 75 71 62 50 53 61 56 56 57 55 56 61 60 65 66 67
95 91 88 84 94 91 88 88 94 91 92 95 91 94 91 78 92 83 97 78 80 97 100 85 93 76 74 77 73 68 62 68 77 82 72 71 67 63 61 68 71 72 70 66
98 96 93 96 85 93 95 95 91 90 87 91 91 94 81 93 91 80 87 89 98 90 82 90 92 77 74 76 69 68 75 84 86 77 79 80 77 75 72 71 72 71 72 76
99 99 96 89 92 97 96 96 96 92 87 92 92 91 94 93 94 92 92 90 83 80 94 96 79 82 72 67 65 66 68 71 75 74 77 78 82 84 77 77 76 77 81 84
100 98 92 96 94 95 94 88 80 77 90 96 96 94 78 91 95 95 87 88 84 94 95 94 77 84 75 65 60 56 55 57 64 73 77 86 80 71 78 81 77 77 76 75

GFSNW_925_rhum_093.txt.gz
RH
59 60 71 79 79 74 71 82 98 78 82 95 98 98 85 79 74 57 47 50 54 55 56 59 64 65 67 70 59 81 76 82 98 74 52 54 58 70 55 78 71 76 82 98
62 59 61 71 77 84 75 95 96 75 84 99 92 82 84 84 72 57 48 51 52 49 54 64 58 62 56 56 61 68 64 78 91 69 58 59 66 57 54 57 68 80 88 92
62 60 57 57 58 68 71 92 96 90 91 90 85 80 87 82 56 49 49 50 47 53 52 50 62 59 57 52 55 61 62 68 76 90 77 67 75 64 61 62 81 81 86 88
54 49 47 48 46 55 79 87 89 78 92 78 78 73 68 68 70 60 46 50 54 52 56 52 53 47 50 53 54 62 64 73 70 64 52 54 57 61 67 73 63 74 75 78
55 47 42 42 57 61 68 85 83 83 86 59 61 66 69 69 65 65 65 71 65 72 80 74 74 64 62 60 57 49 58 80 70 89 48 49 53 56 60 65 66 63 64 70
65 57 48 42 39 53 70 69 63 67 65 66 68 72 60 65 60 57 59 64 62 75 71 68 65 64 57 49 52 60 61 80 90 90 71 60 70 53 56 60 64 62 72 60
70 67 61 46 47 44 62 67 74 74 69 70 68 60 60 65 66 65 63 64 62 60 54 58 56 58 54 45 48 52 60 66 88 92 70 79 56 46 50 54 58 62 63 70
77 73 68 67 49 55 50 58 73 88 70 68 61 56 60 62 64 65 67 64 58 63 61 64 62 66 56 54 50 49 54 66 79 81 90 56 53 51 57 60 64 57 64 68
80 76 75 68 69 54 55 56 62 83 78 73 73 71 57 70 71 71 62 54 57 57 72 63 54 63 54 56 54 50 52 57 74 75 81 65 53 52 48 48 74 53 57 67
71 69 67 71 71 62 55 54 65 73 82 80 73 79 81 74 74 78 67 58 62 58 77 68 64 74 51 66 59 53 62 62 67 75 82 63 50 52 48 61 51 54 53 55
79 75 69 70 72 70 57 52 54 69 86 79 68 65 75 76 80 81 74 69 72 79 78 71 70 66 61 55 51 46 59 64 70 67 65 62 50 54 57 54 51 54 53 55
80 77 73 72 75 72 61 52 50 62 77 76 65 64 64 65 68 85 82 71 75 81 82 81 72 64 65 61 59 51 57 55 63 56 58 49 56 53 54 57 58 56 59 62
72 77 78 73 72 73 64 56 48 69 83 82 77 77 64 65 66 66 82 84 79 80 78 85 84 75 71 69 69 52 51 57 60 55 44 53 53 53 59 55 56 62 63 65
63 73 81 77 68 68 58 54 48 63 77 92 78 62 64 62 65 69 70 72 72 76 86 88 87 83 65 71 63 67 57 60 64 67 57 51 51 58 61 63 67 67 60 58
67 68 80 83 65 68 70 55 50 54 77 91 80 64 63 63 64 68 70 73 81 88 88 96 88 85 73 78 77 88 67 62 68 62 53 52 59 58 63 69 69 68 62 57
72 66 80 84 74 63 69 85 63 50 56 94 88 73 66 64 62 64 70 77 80 85 88 88 88 73 80 89 93 65 60 58 53 53 55 60 63 63 58 67 66 58 56 52
73 69 78 84 80 62 78 79 71 55 50 89 85 94 74 65 66 73 78 70 82 85 88 88 85 82 90 94 77 58 54 50 57 60 67 67 66 69 65 64 60 57 54 49
87 83 86 84 64 63 65 68 57 54 63 88 91 87 86 68 82 84 82 83 85 86 87 85 82 83 87 94 76 62 53 54 65 68 59 63 73 74 71 64 58 50 47 44
94 92 83 68 63 73 74 69 64 56 67 94 95 90 90 79 82 86 83 84 88 85 88 88 82 87 92 72 70 65 63 66 71 69 70 71 73 78 70 54 49 43 44 52
79 71 76 85 72 62 64 80 84 92 95 96 93 96 89 88 89 91 90 86 94 95 87 82 90 87 66 63 66 58 60 67 73 76 73 66 71 65 55 48 49 57 67 67
76 82 88 75 65 71 77 91 90 92 86 93 94 93 92 81 92 91 86 94 96 96 87 91 93 94 77 68 64 62 66 74 69 61 63 61 62 71 56 62 69 66 64 70
81 74 67 68 80 91 70 84 86 85 81 86 87 80 87 85 86 91 86 93 92 95 92 95 96 82 76 72 72 73 74 67 59 60 65 62 61 58 64 70 73 65 63 67
61 72 81 86 84 84 80 75 82 92 90 93 93 89 86 82 88 92 95 96 96 87 98 95 86 84 73 73 76 71 59 55 59 63 61 59 62 56 56 65 67 67 70 67
92 85 84 84 94 92 86 84 82 85 93 95 95 96 92 88 92 90 93 82 86 100 100 85 90 84 76 76 76 65 63 67 73 80 70 68 63 64 67 69 68 68 69 70
96 96 98 95 83 95 96 97 90 92 92 92 94 94 87 95 94 90 89 95 100 92 80 85 93 80 78 80 71 68 73 82 83 77 78 78 71 70 75 69 71 70 71 77
100 98 99 91 95 98 98 96 96 94 92 95 93 94 98 97 94 96 94 93 88 71 89 91 86 78 78 77 72 69 71 71 74 72 72 77 78 76 72 77 75 73 76 79
100 98 95 93 95 93 95 89 89 88 90 92 95 92 74 87 98 100 92 89 81 89 96 96 83 82 81 70 70 69 68 69 68 75 76 76 75 73 81 82 75 74 73 74

GFSNW_925_rhum_096.txt.gz
RH
63 68 71 68 63 61 62 79 94 61 76 94 91 98 88 80 77 64 57 52 52 62 68 78 72 72 70 72 69 92 77 86 97 76 60 60 62 70 69 83 71 82 85 98
54 55 59 61 60 66 66 91 95 68 83 94 94 78 76 83 68 58 52 56 52 50 56 65 59 66 57 71 67 73 67 82 93 66 54 57 71 66 62 65 72 89 89 94
47 45 49 53 51 62 60 88 85 85 92 92 86 83 84 75 55 50 49 53 49 53 54 55 63 61 59 61 60 60 62 74 76 89 74 70 77 66 68 65 85 85 89 88
50 44 42 53 63 64 60 87 87 81 94 81 81 76 70 68 72 58 62 62 72 56 62 60 67 61 59 53 54 60 66 77 73 68 67 59 60 60 70 78 70 71 78 82
67 54 44 42 49 70 63 82 78 85 86 71 64 72 71 72 66 65 66 70 67 73 76 69 73 70 62 61 55 55 64 80 73 90 56 57 58 54 62 68 67 67 70 70
69 69 61 46 44 50 72 77 72 72 66 71 70 74 66 68 61 60 61 64 65 66 66 68 67 65 67 68 56 62 65 80 90 75 72 66 71 52 57 63 64 66 70 66
73 68 68 63 50 48 65 68 74 71 68 76 72 62 62 68 72 63 63 63 63 58 61 65 61 66 66 63 56 60 64 70 89 89 70 72 56 47 51 55 62 63 69 69
80 72 69 70 59 52 49 61 74 79 70 78 69 70 62 63 66 67 67 63 59 66 64 61 61 65 57 56 57 55 60 74 81 84 88 59 53 53 60 64 65 59 65 71
74 69 63 69 71 54 51 54 66 83 77 76 68 75 68 75 76 74 62 55 57 60 77 65 56 60 57 58 56 49 58 66 75 84 84 67 47 53 51 48 62 58 62 70
83 77 69 66 73 69 53 52 63 75 77 79 74 78 70 74 77 82 78 69 67 62 82 74 69 75 54 58 62 50 60 67 77 79 88 71 52 55 49 56 35 61 64 68
82 82 76 70 72 72 62 56 53 66 85 80 70 67 75 79 82 80 71 69 70 82 79 76 74 72 64 66 55 50 54 67 73 73 74 69 56 57 54 44 57 58 58 58
70 79 81 75 70 75 65 49 49 62 76 77 67 64 64 66 68 80 82 73 76 85 84 85 84 68 74 66 66 49 69 58 55 60 58 43 58 45 52 56 57 55 60 60
81 70 77 79 69 70 65 62 49 71 84 84 77 73 61 61 65 69 82 87 77 84 81 89 87 83 77 77 76 56 52 60 67 52 41 57 54 55 57 59 57 59 62 66
81 75 75 82 72 66 70 57 52 64 83 92 79 64 62 60 61 66 70 77 73 79 88 88 89 86 72 80 66 69 58 62 65 70 61 58 56 62 62 62 68 68 66 65
78 78 70 84 80 63 69 71 55 52 67 86 78 70 64 64 63 67 72 74 82 90 91 98 92 88 82 85 83 92 70 62 68 55 52 48 50 56 65 72 72 72 65 61
72 80 71 80 84 67 71 84 67 54 59 89 81 76 68 66 64 65 74 82 87 90 91 91 91 81 82 90 93 69 66 61 50 51 53 59 59 65 67 70 73 69 63 60
72 74 73 79 86 77 75 80 71 56 57 85 82 84 77 67 68 78 81 76 84 88 89 95 89 85 90 94 77 58 63 58 57 58 69 66 69 70 71 69 65 60 58 51
77 79 84 92 75 67 67 66 60 56 63 82 88 82 83 71 84 83 87 85 88 88 89 90 87 86 92 98 76 68 67 60 62 69 64 60 74 77 74 68 63 54 48 46
98 96 96 84 69 74 74 75 68 62 66 86 94 83 79 80 86 88 85 88 89 86 93 91 86 89 95 78 73 70 62 61 64 75 79 82 80 82 77 65 53 49 51 57
95 84 74 86 74 69 66 81 85 92 95 97 93 97 93 87 92 92 90 90 95 96 87 86 95 92 75 68 69 72 68 66 74 80 80 75 89 83 66 54 51 52 63 65
74 82 92 75 69 70 79 89 87 90 91 94 94 91 92 84 89 89 87 95 96 100 85 92 94 93 80 72 75 75 81 74 67 64 65 66 69 73 63 68 68 64 62 71
74 75 71 70 80 89 76 86 86 91 86 91 92 86 87 89 87 91 90 90 91 99 92 96 99 81 71 79 76 77 77 69 64 63 69 66 63 58 64 71 74 69 67 70
69 70 80 86 84 88 85 79 88 93 90 96 96 95 90 88 88 94 95 94 95 89 98 97 86 74 77 80 76 67 59 59 62 64 62 61 65 59 58 67 64 66 70 65
88 84 86 89 93 92 84 82 82 81 91 93 93 98 92 90 95 91 94 78 86 100 100 83 87 71 78 80 77 63 61 64 71 80 70 66 63 63 60 61 63 65 65 69
96 94 98 95 80 92 90 94 94 97 88 93 92 95 85 97 92 93 90 96 99 93 80 83 85 76 79 81 79 72 71 83 82 79 79 73 68 69 72 67 67 65 70 74
100 99 100 94 97 96 98 96 92 97 92 95 90 96 98 95 92 98 96 93 92 74 89 88 86 75 75 81 81 76 72 73 72 71 68 70 72 72 69 72 72 73 74 76
100 97 94 95 97 92 92 80 82 90 87 88 94 88 74 91 100 99 91 89 81 83 88 97 84 73 76 82 80 75 72 70 66 65 69 70 72 67 78 88 79 75 74 73

GFSNW_925_rhum_099.txt.gz
RH
56 61 60 58 58 72 57 75 86 52 60 90 94 99 94 78 70 66 64 57 55 69 70 83 89 82 78 72 78 88 80 87 93 75 60 61 65 72 75 90 74 84 84 97
51 50 58 57 51 70 59 90 89 50 64 93 96 80 75 81 67 59 53 56 52 52 66 69 62 66 58 76 77 75 78 85 92 61 51 54 66 67 65 75 76 89 90 86
65 54 51 64 65 68 62 82 84 85 91 91 83 87 80 72 59 55 54 64 52 52 60 58 64 62 59 74 69 62 62 80 74 81 63 68 76 71 62 71 88 83 86 77
64 64 53 49 63 67 55 87 86 82 90 78 75 76 73 70 76 65 63 60 72 71 62 58 65 64 59 60 56 66 68 84 80 76 72 71 70 67 62 77 70 71 71 82
69 68 64 49 47 71 64 82 81 88 80 76 67 75 74 78 70 72 65 69 69 74 65 65 66 70 63 62 55 63 71 83 76 85 69 66 68 62 59 68 67 67 75 76
75 72 69 63 47 53 72 84 76 67 69 74 73 76 69 69 68 60 64 67 69 64 67 66 66 65 69 68 66 64 68 82 88 80 67 73 75 65 58 64 67 65 79 64
73 71 68 68 56 51 60 69 73 69 68 77 76 66 62 67 71 69 64 64 65 57 66 68 70 76 80 79 76 70 67 74 91 93 68 63 49 47 51 59 62 69 71 69
72 66 65 69 68 53 52 60 69 74 70 76 71 65 64 63 68 66 68 61 59 68 64 62 58 62 54 55 63 70 68 77 85 90 91 59 52 53 61 67 60 68 69 71
82 74 69 66 71 67 53 56 69 77 77 72 67 70 67 74 75 75 63 57 59 60 76 65 56 55 56 53 51 59 70 72 77 85 88 64 41 53 52 46 61 60 66 78
70 80 73 69 68 73 62 50 62 73 77 76 71 78 74 75 80 83 80 70 67 64 80 75 72 76 56 67 61 52 63 71 86 86 91 76 54 55 49 48 36 60 65 71
60 72 76 73 69 74 69 60 53 68 82 78 76 70 75 79 84 81 70 70 70 83 77 81 76 77 67 70 62 53 56 67 79 79 83 75 58 57 52 46 58 57 59 62
60 65 74 77 72 70 70 61 51 64 79 78 69 66 62 62 65 83 82 73 75 84 86 88 87 76 81 70 67 54 69 56 52 65 64 45 57 50 51 57 59 59 58 58
68 71 72 78 78 67 71 67 62 68 87 85 77 75 64 65 63 63 76 87 80 84 84 89 89 85 83 82 84 62 56 63 69 57 47 56 55 57 59 62 58 57 59 67
57 79 70 75 83 71 67 65 58 60 83 92 76 66 65 64 65 66 69 76 77 82 88 87 89 87 73 81 68 72 58 67 69 74 62 60 58 60 59 62 63 66 67 68
43 79 72 68 84 84 64 71 66 54 67 83 75 68 66 66 66 68 73 75 82 91 92 99 97 90 86 88 88 87 70 56 65 57 50 44 42 46 62 71 74 74 69 65
40 75 77 68 82 85 69 87 73 59 61 89 80 72 71 68 67 69 79 83 88 91 93 94 93 83 83 91 96 71 66 60 50 49 49 56 55 59 67 70 75 76 69 66
43 73 78 75 83 82 71 82 73 60 59 84 82 83 78 69 71 81 85 82 88 90 90 97 92 87 92 96 83 62 59 62 63 64 62 63 67 62 73 72 74 65 62 58
45 76 85 87 92 73 72 69 66 58 65 80 85 81 83 73 84 85 90 89 91 91 91 91 93 89 93 98 80 71 68 70 72 71 71 61 68 78 77 73 66 62 54 52
52 90 98 94 81 74 74 79 74 68 68 86 94 84 74 83 88 90 90 90 93 88 95 94 89 92 98 80 77 74 69 68 70 72 72 76 77 84 80 73 62 54 52 57
98 98 84 89 75 75 69 85 86 93 94 97 94 95 93 86 92 93 91 93 95 96 88 89 98 95 77 74 72 75 76 74 77 85 85 83 90 84 77 69 54 50 57 64
82 82 92 76 74 72 79 91 92 91 95 95 95 89 91 85 88 86 88 95 96 98 89 94 96 94 78 68 75 76 82 87 88 71 64 75 77 83 67 59 58 60 62 65
70 70 73 74 78 88 85 90 84 96 89 91 94 90 86 92 89 90 93 91 92 98 93 98 100 82 65 70 74 76 73 70 66 62 65 64 74 66 62 70 72 66 62 65
77 71 82 86 86 93 92 81 86 93 89 97 96 98 91 92 89 95 94 92 95 89 99 98 89 74 67 74 78 74 60 62 65 65 64 62 64 58 60 69 63 61 67 67
96 96 93 91 93 93 86 81 82 83 94 93 92 99 91 90 95 90 89 82 87 99 99 89 87 67 63 75 80 70 59 62 69 83 72 69 64 59 56 54 57 62 67 63
99 98 96 95 81 94 94 90 92 94 87 91 92 95 85 98 94 93 92 97 99 96 83 83 82 60 74 75 83 81 73 83 83 81 82 74 65 65 66 61 59 59 60 65
100 98 99 94 96 97 99 96 94 95 83 90 87 95 93 90 91 98 95 92 93 76 89 83 77 72 73 76 83 84 74 76 74 76 70 67 70 70 65 64 66 64 64 68
100 98 92 93 96 93 91 87 86 84 81 84 90 84 70 88 97 96 90 88 80 82 82 85 83 65 62 74 82 85 77 76 72 69 68 66 66 68 72 91 75 70 70 71

GFSNW_925_rhum_102.txt.gz
RH
56 49 48 64 58 69 55 68 85 44 46 88 94 98 95 77 69 66 67 59 59 71 71 77 85 88 74 72 78 89 80 84 90 78 60 61 67 72 76 94 79 87 91 90
61 62 50 47 68 73 59 82 80 44 47 92 95 78 75 76 68 62 57 58 55 55 69 73 82 71 59 77 82 79 80 89 94 55 46 53 65 68 65 77 81 86 93 80
64 58 58 48 46 68 56 80 82 83 91 88 81 83 80 70 61 60 60 67 55 54 61 65 66 64 61 79 76 67 69 83 78 77 54 65 74 68 62 76 92 81 89 74
68 64 57 51 46 60 56 88 86 81 86 78 75 75 73 71 76 67 66 60 73 75 65 61 62 64 61 68 61 71 71 87 86 80 77 74 74 73 71 80 74 78 62 80
73 68 63 56 45 55 63 78 84 88 79 76 68 77 77 75 71 68 65 68 71 70 70 67 71 71 66 64 57 69 76 85 82 90 71 79 79 72 71 66 71 76 76 81
71 68 64 64 48 52 71 83 74 67 72 74 74 77 70 68 72 61 63 66 71 64 64 68 70 70 68 66 68 68 73 85 89 86 72 72 74 69 70 63 69 67 82 66
74 67 66 66 63 49 58 74 67 70 68 80 77 71 67 67 72 73 64 66 68 56 68 72 73 80 85 84 83 78 74 75 91 94 75 66 44 49 52 61 61 73 72 70
76 73 70 66 66 59 51 61 69 73 67 78 72 71 67 65 65 73 70 65 61 69 65 63 57 56 52 60 72 81 76 78 87 91 96 61 41 53 58 60 55 66 75 70
62 74 74 71 67 68 55 53 68 75 77 68 63 71 68 76 76 76 68 58 63 62 74 63 53 47 52 51 55 77 76 75 79 90 90 54 30 52 54 47 60 47 70 77
61 63 74 72 69 71 68 53 59 72 78 75 71 78 75 75 80 83 81 70 67 65 79 72 73 75 59 65 58 61 76 78 92 91 92 79 56 54 50 51 30 59 68 75
41 68 68 75 72 68 71 67 55 66 83 78 75 68 74 82 85 80 69 74 72 84 75 82 79 78 73 73 64 58 59 69 83 88 90 81 58 57 52 45 54 56 64 70
48 51 72 73 80 67 69 67 56 56 78 76 67 64 62 63 63 80 83 76 73 83 87 89 87 83 85 75 70 58 62 54 53 66 64 47 56 57 50 53 56 57 60 62
82 37 70 76 86 75 67 69 69 62 89 85 78 74 63 65 65 64 78 86 81 84 83 88 88 85 86 85 88 66 56 62 66 61 46 56 55 54 64 59 59 51 61 63
88 46 62 73 80 88 70 70 63 59 80 93 75 68 67 66 66 67 69 74 81 83 90 88 89 88 76 84 74 75 59 66 68 77 60 60 52 57 57 60 65 62 64 67
91 65 62 73 68 94 87 70 72 59 64 82 76 63 66 69 69 70 73 75 82 91 92 99 98 91 87 88 91 97 72 63 74 60 46 52 49 46 51 63 69 73 73 68
97 78 57 81 71 88 87 89 80 63 56 89 83 65 74 73 72 75 81 83 88 91 93 93 92 85 85 89 94 75 70 63 57 57 53 58 55 60 61 64 71 74 72 67
99 80 54 85 81 90 82 81 74 62 59 82 84 84 76 72 74 84 88 88 92 92 92 98 93 89 95 97 86 58 68 63 66 68 68 74 69 65 66 70 77 71 66 63
100 76 63 88 94 94 81 74 74 61 65 79 87 82 78 74 87 88 92 92 92 92 93 92 95 88 94 98 69 70 69 72 74 72 74 73 74 70 77 78 76 71 68 59
100 67 84 99 99 83 75 83 80 72 72 88 92 86 75 84 91 92 93 91 95 90 97 95 91 91 98 84 78 77 75 67 69 74 81 81 84 79 83 79 74 70 59 56
89 99 99 98 78 78 84 89 90 92 95 96 94 93 84 87 94 95 93 94 96 97 90 91 96 93 74 71 75 80 78 80 80 92 87 84 90 87 85 79 67 60 54 58
100 90 93 81 82 74 78 91 96 95 96 94 94 86 90 87 88 88 88 94 95 98 92 96 96 96 82 69 70 75 77 82 86 88 81 76 78 87 84 73 60 54 57 65
87 77 77 77 80 88 89 91 87 96 86 93 88 88 85 93 90 91 97 94 95 97 92 99 99 85 68 68 66 68 74 74 76 72 77 72 80 82 76 72 73 64 59 60
86 84 97 92 88 97 98 85 90 93 89 94 96 98 90 96 89 95 94 96 97 89 99 97 87 74 63 70 73 74 70 64 65 65 64 67 72 68 65 71 62 61 63 61
100 99 97 95 97 93 86 81 85 85 91 89 86 96 88 88 97 92 93 86 87 100 100 91 84 70 60 69 76 79 67 66 66 82 78 75 71 64 59 57 58 59 65 63
100 99 96 97 84 94 94 94 94 97 81 88 89 92 82 97 95 94 91 99 100 94 83 83 79 61 61 70 76 84 80 80 82 85 86 79 66 64 62 57 55 53 55 59
100 99 99 95 96 95 100 98 98 94 79 90 91 92 90 86 90 100 91 86 82 76 90 82 68 58 70 74 73 80 82 76 73 76 72 66 69 67 62 60 57 55 55 60
99 99 96 94 96 93 91 88 89 79 81 87 89 87 68 91 97 96 87 85 82 83 85 83 73 61 58 63 68 78 83 78 73 68 69 65 59 64 66 88 64 59 58 58

GFSNW_925_rhum_108.txt.gz
RH
64 59 60 47 49 50 45 65 78 49 59 74 79 85 62 68 54 61 60 51 54 55 60 64 65 62 60 52 55 59 63 66 74 58 53 52 55 54 52 54 61 61 64 58
65 62 58 50 48 56 43 66 70 49 58 78 79 68 67 64 60 59 57 56 53 51 57 59 63 60 55 59 57 59 64 68 79 43 50 54 59 56 54 54 61 68 61 40
63 60 60 55 49 57 48 51 80 58 65 69 55 58 63 62 59 58 58 54 52 53 57 58 58 58 59 62 60 68 64 66 64 45 34 42 52 48 56 56 68 46 52 37
63 58 57 57 48 55 52 59 74 69 74 60 63 61 59 60 60 56 56 58 55 52 53 55 55 53 54 66 66 68 64 80 71 65 56 56 60 59 54 65 59 56 38 48
60 61 57 54 48 49 66 56 58 64 60 61 56 62 62 60 60 59 53 54 58 57 52 46 45 50 53 46 63 68 68 80 71 83 49 54 66 56 56 56 54 53 48 48
38 56 59 57 49 46 66 81 70 48 67 61 52 56 62 61 64 58 59 59 56 57 54 55 52 51 54 55 55 60 65 74 79 68 53 54 50 41 46 52 52 51 57 39
35 43 59 58 59 52 58 70 63 44 46 57 52 64 61 59 62 61 58 60 58 50 56 55 58 60 62 62 60 57 63 69 72 82 60 43 31 39 42 47 43 45 42 45
78 37 54 62 59 60 52 65 67 51 37 49 56 63 64 61 60 64 62 55 49 58 54 49 43 36 45 56 68 69 64 63 74 82 66 38 29 46 49 50 37 37 42 39
87 59 44 63 65 61 63 56 67 66 53 42 49 57 61 58 58 59 61 58 61 57 54 50 46 30 32 35 50 68 73 65 73 70 76 42 23 40 45 45 37 30 40 43
85 86 44 53 68 68 64 66 58 69 60 53 56 53 52 60 63 58 63 61 67 62 59 53 46 44 46 40 44 68 77 82 90 75 78 56 37 44 45 43 24 33 49 47
85 85 82 42 62 70 68 70 70 62 62 55 62 59 64 71 64 49 57 60 68 69 66 58 51 57 49 55 45 47 51 62 71 73 81 80 42 54 41 29 34 37 43 45
87 85 86 59 61 67 76 73 68 64 67 58 62 58 56 60 57 54 66 58 60 56 61 62 60 63 63 51 48 49 52 37 34 43 41 34 41 36 38 39 41 42 44 39
90 88 86 84 52 68 78 78 72 74 75 64 70 64 64 63 64 62 56 68 64 70 68 62 63 68 59 55 58 51 45 42 45 46 30 35 31 32 34 35 39 38 40 45
93 90 86 90 60 68 75 90 78 69 74 80 60 63 68 67 66 69 68 70 78 75 74 71 68 69 56 57 50 54 38 49 44 46 39 37 37 36 36 39 41 45 46 48
98 95 89 95 72 66 73 84 96 86 72 75 67 66 67 70 72 76 76 76 72 73 77 86 88 69 71 65 74 69 52 48 53 46 34 35 32 34 42 46 47 47 50 51
100 97 96 96 80 72 71 80 82 88 72 80 86 67 74 80 80 82 80 77 74 75 74 74 72 72 72 77 72 47 48 43 38 38 33 37 37 46 48 51 51 50 57 54
100 99 100 100 85 85 76 75 74 78 68 76 85 82 73 78 80 81 82 88 79 77 79 88 77 77 81 86 67 32 44 47 46 44 48 55 56 50 52 57 54 57 65 66
100 100 100 100 86 97 95 77 84 69 64 80 88 85 68 76 82 82 82 84 86 86 81 85 88 85 85 93 59 49 46 45 51 50 52 49 56 63 60 57 60 67 65 60
100 100 100 93 97 100 88 84 96 82 73 90 86 85 80 78 80 80 85 80 92 78 92 87 84 83 96 67 54 52 56 60 55 60 62 62 65 62 55 61 67 71 67 60
100 99 94 100 97 91 90 97 91 93 89 89 94 76 77 78 83 85 86 84 84 98 80 83 95 86 64 57 56 54 57 58 62 80 75 66 72 68 64 68 66 67 64 59
98 100 99 100 99 93 86 93 97 89 97 89 89 82 75 74 82 75 76 86 86 99 82 92 89 88 66 55 57 51 54 65 63 63 59 59 63 75 71 68 72 72 69 64
96 95 97 99 98 100 99 95 86 94 87 78 87 82 70 79 75 75 87 86 91 96 84 95 94 74 62 61 63 62 61 63 64 63 62 68 70 74 73 76 82 74 70 64
99 97 99 100 98 97 96 96 94 93 80 86 85 87 73 88 83 79 84 98 93 80 94 91 77 64 55 59 66 67 63 60 59 61 67 66 66 68 74 74 74 68 65 63
100 99 98 96 96 92 84 78 79 71 83 84 76 88 78 78 87 78 95 75 82 98 99 83 75 61 54 49 56 57 60 61 62 79 80 75 72 68 69 73 67 64 59 63
100 100 96 96 79 85 84 85 83 85 80 80 80 83 72 85 88 84 86 96 99 89 77 76 74 60 62 56 54 54 57 67 75 74 80 82 74 71 66 66 66 62 59 63
100 100 99 94 94 93 90 89 84 84 78 82 79 85 91 87 85 97 94 83 82 71 84 74 62 54 57 58 54 51 52 53 60 72 72 72 74 73 68 63 64 61 57 59
99 98 87 81 95 87 81 70 66 72 76 90 94 97 91 93 92 91 76 83 75 80 77 70 65 57 48 48 49 52 54 56 60 65 68 71 65 67 70 74 68 61 57 53

GFSNW_925_rhum_114.txt.gz
RH
50 54 52 46 42 48 52 62 83 43 47 79 65 86 50 48 51 48 48 46 44 43 45 45 45 46 48 41 44 53 56 59 78 61 46 47 52 59 60 80 55 63 63 71
42 44 50 46 42 42 57 55 54 47 53 90 84 55 58 51 53 49 49 46 46 43 44 49 44 44 46 44 50 61 51 66 85 59 49 46 56 52 55 52 57 73 76 53
27 43 46 44 43 41 54 56 90 60 54 50 47 50 51 56 53 48 46 46 43 45 46 44 48 46 55 48 52 58 59 61 68 74 47 52 56 50 47 56 84 68 59 48
28 33 40 41 40 49 55 59 65 62 82 53 45 45 44 50 54 50 46 48 48 45 46 42 46 40 51 56 65 60 64 78 67 66 56 57 59 56 52 56 59 70 52 51
59 27 34 39 36 51 50 66 60 54 48 46 48 54 48 47 49 47 48 53 42 43 50 43 46 41 41 42 65 64 64 87 68 79 58 57 64 54 51 51 49 49 47 49
78 39 32 38 38 44 51 52 48 53 57 44 44 45 43 45 47 45 46 46 46 47 46 46 42 44 44 45 47 69 64 84 82 86 65 65 75 48 48 45 43 46 57 44
78 75 31 38 44 50 60 65 61 55 48 44 40 43 44 46 47 54 42 46 50 52 44 45 48 55 52 50 48 46 55 65 73 83 74 89 49 28 31 39 39 39 37 36
82 79 70 33 41 48 64 62 70 62 58 38 33 41 47 44 47 55 50 46 45 48 50 58 48 46 44 46 50 52 51 61 80 91 87 61 46 38 44 46 41 35 37 36
88 80 78 65 37 42 67 62 61 66 65 45 33 40 36 51 47 47 55 51 49 51 59 51 55 47 29 46 63 52 59 58 68 71 88 78 36 40 39 41 61 34 34 32
92 89 81 78 58 43 60 65 64 75 70 46 38 46 48 42 50 55 50 58 67 55 66 66 57 59 35 41 40 82 80 69 83 76 78 70 38 44 41 43 37 32 33 36
97 94 90 83 80 52 53 70 60 70 79 67 47 45 50 55 60 52 60 62 68 74 76 63 57 55 44 48 37 64 76 90 88 76 84 87 46 49 46 38 32 34 39 38
96 98 95 90 85 78 55 75 70 66 78 70 59 50 47 50 57 62 53 56 54 59 70 67 60 60 51 50 56 32 46 46 55 61 65 41 45 40 42 38 40 37 38 39
94 95 96 94 89 85 73 74 72 79 85 78 75 67 59 55 52 55 64 55 54 61 74 78 72 75 62 66 59 48 37 33 47 39 35 31 29 39 39 39 41 38 37 40
91 99 100 98 93 88 86 87 89 78 75 95 69 58 58 60 63 65 60 65 63 64 77 83 79 73 53 61 54 58 48 41 45 44 37 33 31 30 29 32 34 37 40 42
91 92 99 100 98 92 90 85 99 90 82 95 86 62 68 66 67 71 71 70 70 77 86 98 93 75 65 61 62 63 49 43 46 46 35 35 33 33 33 38 40 42 46 50
86 92 90 100 100 97 86 80 77 84 90 95 96 71 70 74 74 71 73 73 76 80 84 85 78 70 73 93 89 51 47 43 37 36 36 38 36 42 38 43 45 45 49 50
84 90 92 97 100 100 82 80 74 76 86 87 92 94 73 74 75 79 81 77 83 86 84 90 87 80 82 96 74 37 35 36 40 39 41 46 43 47 46 46 49 49 51 53
89 88 85 86 100 100 98 92 88 74 69 81 94 92 84 74 84 88 74 82 80 91 91 86 91 83 91 96 61 49 47 44 42 37 43 44 48 52 51 52 57 62 67 60
83 80 88 100 98 100 98 96 92 86 78 98 96 96 94 79 81 85 87 71 82 81 97 92 88 91 96 76 64 57 51 53 52 52 55 50 52 57 60 63 65 67 65 65
87 98 98 99 100 100 92 98 98 99 99 99 99 90 97 85 85 89 88 77 83 92 81 82 98 82 62 54 52 50 51 56 54 73 69 66 69 72 69 70 63 66 67 70
90 99 99 99 99 96 98 99 99 99 100 98 94 90 86 75 90 84 80 92 91 95 87 92 92 89 66 52 54 55 55 54 50 61 58 65 62 68 67 66 69 74 73 77
97 96 98 99 100 99 100 99 98 99 88 88 86 87 88 79 75 87 85 95 92 96 88 91 91 82 63 63 60 60 61 61 62 61 69 68 63 64 69 75 83 76 71 72
89 94 100 100 98 100 98 96 99 97 92 92 91 93 82 83 87 90 94 99 93 85 89 92 87 75 54 58 60 64 63 64 57 59 60 63 62 62 71 79 74 72 77 76
96 98 98 97 89 98 91 92 92 89 95 93 90 93 90 80 93 88 98 86 85 98 94 89 88 63 61 59 57 63 60 58 60 79 81 73 70 75 68 70 66 69 75 71
92 100 96 94 86 95 96 98 91 90 86 88 98 97 95 99 99 98 98 97 95 94 87 85 85 67 62 55 54 56 58 64 76 78 83 80 78 80 73 64 63 67 67 65
100 98 94 88 93 95 97 96 97 91 87 91 95 87 91 95 97 98 94 96 92 82 88 88 76 64 59 54 52 50 54 53 56 70 70 72 77 81 75 64 62 64 66 65
100 97 93 88 90 93 93 93 88 76 91 98 99 98 90 96 98 99 96 95 87 81 64 86 77 72 53 44 52 49 52 51 50 51 53 66 59 64 75 80 71 64 63 64

GFSNW_925_rhum_117.txt.gz
RH
40 44 48 43 41 42 55 71 73 50 62 82 89 90 56 48 53 50 59 51 51 50 49 50 50 54 53 46 49 60 56 69 85 73 54 62 72 76 72 86 66 76 78 81
32 40 44 43 43 40 54 67 67 61 60 86 91 61 61 55 58 57 52 50 46 45 48 53 47 50 50 50 53 61 58 73 86 69 56 52 59 61 64 63 68 81 80 55
30 35 39 38 42 43 53 73 76 80 69 67 60 56 56 61 52 52 49 50 46 48 51 46 52 52 56 52 54 57 60 75 67 48 44 58 66 60 59 69 89 66 61 47
54 28 30 36 46 50 57 76 68 68 82 64 50 50 50 56 60 54 48 51 51 52 55 50 54 46 61 58 66 60 70 88 77 74 72 69 68 68 64 66 60 76 47 56
69 33 27 28 34 49 44 72 71 70 62 52 48 54 53 50 52 52 52 57 50 46 54 51 56 48 45 50 76 73 75 87 80 89 70 71 77 65 63 63 60 56 53 54
72 63 27 29 32 37 54 56 55 65 63 55 53 55 48 49 48 46 49 52 53 53 52 55 54 52 50 52 72 84 77 88 84 89 72 73 77 57 53 55 56 55 66 48
81 73 55 29 36 43 56 68 74 67 58 53 50 46 46 49 51 54 48 48 54 50 50 53 52 64 64 63 63 68 68 80 80 91 78 85 40 38 32 48 47 45 43 42
87 82 73 51 32 44 52 57 73 79 63 52 42 40 47 48 50 54 54 50 53 54 51 65 58 52 49 52 65 67 61 71 83 88 94 64 59 40 39 40 42 41 45 41
95 89 82 73 48 35 51 56 61 78 73 54 38 44 40 56 58 55 54 55 54 54 69 64 60 55 44 41 64 61 64 65 75 83 96 83 43 40 41 36 47 34 39 40
95 96 90 82 73 46 48 57 56 76 82 64 42 50 50 52 56 62 57 61 66 63 79 76 72 69 38 42 48 84 85 79 85 76 79 74 53 42 39 46 34 34 38 38
91 92 95 90 81 73 50 62 56 56 88 80 52 46 52 59 66 59 56 59 70 83 80 79 71 66 51 50 51 78 82 91 89 81 79 89 49 49 44 39 34 34 35 37
89 90 91 93 90 82 70 68 66 63 74 67 60 53 53 48 50 63 61 57 66 75 82 79 73 66 63 58 60 47 62 57 74 70 67 47 51 44 42 39 36 36 38 42
86 88 89 96 95 92 87 74 73 75 91 85 79 68 58 58 57 52 64 65 58 73 74 82 82 82 74 76 69 53 44 44 52 47 43 46 39 42 44 44 45 42 43 43
87 86 88 100 100 99 95 89 88 76 83 94 74 59 58 59 60 62 61 66 66 72 84 82 88 84 65 70 58 60 52 54 50 47 36 34 32 33 33 34 40 44 45 46
88 86 90 95 100 100 98 96 98 95 72 88 87 71 70 66 64 67 70 70 75 85 84 98 97 89 74 75 77 61 52 49 59 54 34 36 33 34 33 36 37 41 47 48
88 76 90 96 100 100 95 85 80 85 84 95 94 76 71 70 71 74 76 79 83 86 90 91 89 77 76 92 96 69 46 43 38 40 35 38 40 42 37 40 45 48 52 57
71 86 94 91 96 100 89 87 73 74 85 87 93 90 79 76 78 84 87 82 88 90 90 94 90 86 84 94 96 44 45 45 48 49 52 52 50 46 47 49 46 50 50 52
87 87 83 79 93 100 100 100 99 83 71 78 98 93 90 75 90 92 81 87 85 91 94 91 93 88 90 93 66 62 61 60 57 51 50 46 48 51 56 56 59 60 65 67
88 80 80 98 97 100 100 98 99 90 77 99 99 98 90 82 88 91 90 82 94 83 99 94 92 93 97 76 74 70 63 65 55 53 59 61 61 64 63 64 64 71 74 73
89 88 89 97 100 100 97 99 98 99 99 100 99 94 97 88 91 90 94 85 88 92 87 83 98 89 66 57 53 52 52 52 54 73 68 69 69 68 66 69 70 72 69 67
97 99 98 99 100 98 100 100 100 100 99 96 96 94 88 79 90 88 85 96 91 91 90 90 93 90 76 61 64 60 60 62 65 67 66 67 63 63 70 69 69 72 73 77
97 94 98 100 99 100 100 98 99 99 94 95 96 92 89 85 79 93 94 96 95 92 91 96 90 83 73 71 64 57 62 70 69 71 74 74 67 63 68 72 77 74 69 68
81 94 96 99 98 99 98 95 99 99 93 94 91 92 87 82 84 89 99 98 91 89 90 87 85 74 62 60 65 59 64 63 63 69 67 65 69 65 66 71 65 69 74 72
94 89 91 93 94 93 92 93 91 87 95 94 91 94 91 87 96 93 100 88 99 97 98 90 86 68 56 61 62 59 54 59 63 72 77 74 70 70 61 63 65 70 78 69
84 98 94 90 86 95 97 96 90 90 90 90 98 98 97 97 99 96 98 100 97 94 86 85 91 64 66 64 56 48 42 53 62 70 74 74 67 69 63 56 56 65 68 69
100 98 91 78 97 91 95 98 97 93 91 94 96 93 95 95 95 100 96 96 94 83 90 90 85 72 72 60 59 54 49 53 56 55 61 63 70 72 63 52 57 61 64 69
99 96 84 96 97 93 93 94 89 87 89 94 97 99 91 95 99 99 94 96 75 79 79 79 67 70 44 45 59 60 58 55 50 55 53 58 51 54 74 81 61 64 62 62

GFSNW_925_rhum_120.txt.gz
RH
35 47 45 44 46 47 53 76 67 60 69 81 90 89 60 49 53 52 61 54 51 55 54 53 55 59 54 49 51 62 57 74 88 76 57 65 71 79 79 83 59 85 80 81
26 31 42 49 49 47 58 70 71 71 74 80 92 63 61 56 57 59 56 55 49 47 51 54 50 55 51 54 55 64 60 72 85 51 58 56 72 74 72 67 74 81 83 53
41 25 28 39 50 49 56 74 70 72 74 72 68 62 62 60 54 55 51 54 48 50 53 49 52 55 56 53 57 61 58 77 66 38 30 60 70 67 70 74 95 75 65 48
55 29 23 30 41 45 50 75 68 71 80 63 55 54 57 61 62 55 51 54 53 54 59 54 57 51 63 60 61 65 69 86 84 80 74 73 71 70 66 72 69 78 43 53
63 44 27 23 31 42 47 67 68 73 68 57 50 59 55 56 54 56 55 58 52 53 57 50 56 49 56 59 78 74 79 82 84 94 77 77 82 70 72 69 66 63 59 60
72 66 41 26 24 29 47 62 63 65 68 60 53 57 51 50 48 48 50 53 55 56 54 53 53 53 52 50 80 84 85 93 86 89 74 78 77 56 54 63 68 63 71 51
78 75 68 38 34 36 47 70 75 62 57 59 54 49 47 51 52 50 50 52 56 49 51 52 53 65 72 68 68 74 84 82 87 94 79 65 36 47 42 52 49 56 52 49
86 85 76 67 40 49 41 60 70 72 51 59 48 42 46 50 51 56 54 51 52 56 52 63 55 47 46 66 69 76 70 80 83 92 96 63 50 40 39 43 38 40 44 41
92 91 88 77 66 48 50 52 64 74 62 46 43 45 43 54 61 60 57 57 57 56 67 65 55 46 38 39 64 67 73 67 74 89 97 65 33 39 40 35 44 29 42 39
93 90 91 90 81 67 56 55 48 71 72 65 48 52 46 56 60 63 61 61 64 63 82 75 78 74 44 48 47 78 85 86 83 85 92 76 52 46 38 45 26 28 36 37
89 91 90 89 90 83 68 67 57 55 79 73 58 47 55 61 65 55 49 58 70 81 77 78 75 72 54 51 49 75 78 92 96 87 88 89 50 50 47 38 33 31 34 36
87 86 86 86 86 88 84 68 71 67 70 67 61 56 55 49 49 62 62 60 70 76 77 83 76 72 69 61 61 62 62 54 69 72 68 45 51 45 42 40 38 33 36 39
87 85 86 84 90 94 93 87 84 78 89 81 74 69 63 60 58 52 68 70 66 73 78 83 85 82 78 80 81 56 50 49 61 60 50 47 44 46 49 47 45 44 43 42
87 86 86 87 88 99 100 94 92 89 86 93 75 61 59 60 61 63 60 65 71 78 86 83 87 84 71 78 69 71 56 50 57 52 39 37 37 36 34 37 40 49 50 49
92 87 82 80 90 100 100 100 100 98 75 86 81 71 72 68 65 66 69 71 78 85 81 97 97 91 83 82 87 68 59 58 68 60 42 45 40 40 38 42 42 41 47 46
89 84 71 80 91 99 100 89 84 84 86 94 96 78 72 72 71 75 78 81 86 86 89 90 89 83 76 91 94 70 63 52 47 45 43 48 45 51 47 45 42 44 48 53
77 76 83 87 91 97 97 94 78 74 84 87 95 94 79 77 81 87 89 86 91 89 91 97 92 87 86 94 86 56 56 60 59 55 60 53 48 53 50 55 54 49 54 53
67 82 83 76 85 98 100 99 96 90 78 84 99 94 87 76 90 90 88 85 86 90 92 94 91 86 89 96 74 68 64 65 62 59 57 58 56 58 57 61 64 65 66 66
66 89 88 98 90 99 100 99 100 95 87 100 99 99 90 84 93 92 90 85 94 85 99 95 90 96 98 80 74 73 62 63 60 58 59 61 70 68 68 71 70 72 73 73
86 95 92 93 100 100 98 98 98 99 99 99 99 95 96 86 92 91 93 87 88 96 90 95 98 91 66 59 56 56 56 57 64 82 72 66 73 75 73 71 74 75 78 79
92 97 96 96 100 99 99 99 100 99 100 99 98 95 94 82 91 93 94 98 92 98 89 93 94 96 78 64 64 64 65 68 70 74 75 78 82 85 82 74 68 72 72 75
97 94 98 99 100 100 100 99 99 98 95 96 97 96 90 87 83 98 100 98 98 95 98 98 92 80 72 67 61 60 60 63 59 58 71 74 78 74 75 78 79 72 63 64
86 94 90 99 94 100 99 86 99 100 95 97 96 96 90 86 85 94 98 98 94 91 98 91 82 73 62 62 62 65 55 49 56 57 53 55 58 53 64 71 60 60 64 60
97 91 99 88 98 93 91 94 91 89 96 96 91 96 94 90 98 95 99 88 97 97 98 91 86 72 65 58 63 64 61 60 55 60 59 64 64 61 52 53 50 56 64 61
88 93 98 91 86 95 98 97 94 92 91 93 97 98 97 98 98 92 91 99 95 94 90 87 86 70 72 69 68 71 67 60 54 55 61 60 61 63 60 54 49 52 58 63
99 97 90 74 87 84 91 98 94 92 90 92 95 98 96 96 94 98 91 96 94 83 90 91 84 76 71 61 48 47 49 44 47 52 56 57 62 62 57 57 56 58 61 64
99 94 78 97 98 92 94 92 91 86 88 98 99 96 93 96 99 98 92 96 84 82 79 83 81 79 55 44 45 50 44 45 46 54 56 59 62 63 73 77 60 56 57 61

GFSNW_925_rhum_126.txt.gz
RH
35 32 36 48 44 43 51 74 74 82 81 77 90 88 60 52 57 58 60 55 53 57 60 60 63 61 58 57 57 63 63 73 86 74 63 65 71 78 78 75 60 90 81 77
43 32 33 41 51 47 60 76 78 86 80 74 92 69 66 57 60 60 59 57 52 51 57 58 55 58 56 58 59 66 61 68 69 40 52 73 80 81 77 71 73 85 74 48
64 43 32 29 46 50 56 63 68 69 80 78 69 64 64 64 57 58 55 56 51 52 55 54 55 57 59 57 58 64 62 75 52 35 24 60 82 81 86 76 95 81 64 41
67 59 40 29 42 56 48 76 74 72 74 70 65 58 61 61 57 58 55 55 55 54 58 58 59 56 66 62 67 70 69 76 84 78 75 67 63 63 80 91 74 76 40 56
73 62 56 35 29 40 50 65 66 77 75 65 54 61 60 58 58 56 55 58 56 57 57 55 51 57 63 60 80 73 83 81 87 97 81 86 90 81 77 69 69 78 71 70
78 68 60 53 36 32 54 72 71 62 72 64 49 58 61 59 53 52 52 57 58 59 59 54 50 53 57 54 78 83 87 92 87 85 76 80 70 64 67 77 78 69 76 55
85 80 71 62 49 40 42 73 74 51 56 62 54 55 52 57 56 51 55 59 56 48 54 52 54 60 66 67 68 77 92 86 89 96 78 51 29 41 54 68 62 71 64 59
85 84 80 78 67 51 51 60 70 61 47 58 49 48 51 52 55 60 57 56 55 60 56 61 50 42 52 77 74 80 79 84 82 91 98 61 28 44 54 53 41 44 54 53
86 86 84 82 80 69 55 64 62 68 64 62 42 46 46 52 55 57 59 61 64 61 70 65 48 46 36 50 76 86 84 77 76 92 93 54 26 38 41 34 38 28 50 44
90 84 85 83 80 78 64 71 68 60 73 65 52 55 47 56 61 57 60 66 69 62 77 66 71 68 52 51 54 92 96 94 95 92 90 78 56 45 40 39 33 28 33 35
97 87 84 86 84 81 76 77 81 72 84 80 60 55 58 68 64 53 53 61 68 83 72 72 73 74 67 55 49 82 87 96 94 86 90 85 55 51 42 35 39 35 44 45
91 88 84 85 86 86 87 81 81 82 80 78 63 60 61 59 56 63 68 54 72 78 76 84 84 78 83 70 62 64 58 63 82 78 71 49 50 46 43 48 54 52 54 47
90 92 86 84 90 100 98 94 88 88 93 89 76 69 69 66 61 60 61 72 68 78 75 80 83 80 79 79 82 59 56 59 62 53 41 50 48 45 45 46 50 47 47 49
90 95 90 88 83 88 100 96 96 86 85 96 81 63 65 66 64 66 64 62 77 80 87 86 88 87 71 76 72 71 58 60 62 67 49 50 44 48 48 49 51 56 58 59
82 89 94 90 80 85 98 100 100 99 86 92 85 75 74 70 66 66 70 73 80 85 83 97 91 89 86 88 88 91 66 63 70 71 60 62 61 52 51 58 59 57 61 65
83 84 83 77 84 94 99 95 86 98 85 95 98 83 76 76 74 77 81 83 87 87 84 85 85 82 81 91 90 63 60 60 56 58 58 65 64 61 57 60 63 65 69 70
81 81 76 82 91 94 94 94 84 82 83 91 98 97 82 81 82 89 90 88 93 90 89 94 93 89 92 98 97 61 61 59 62 62 63 55 52 57 56 63 67 70 72 70
68 70 81 85 88 94 95 90 94 86 85 89 100 91 88 78 88 90 92 93 91 93 93 96 96 89 93 99 80 72 66 64 54 55 61 61 62 66 66 68 76 76 67 72
66 90 90 87 86 92 95 88 97 98 92 100 100 99 94 83 94 93 92 91 94 94 99 98 93 92 98 78 75 65 60 60 61 67 65 59 68 69 71 74 68 70 62 61
88 93 80 86 100 99 98 97 98 99 98 100 96 94 98 87 94 92 94 94 98 99 92 97 99 94 71 70 70 68 64 62 60 73 53 52 54 54 58 62 63 75 76 70
89 81 86 82 99 98 99 99 98 99 100 99 98 97 96 85 90 88 92 94 95 95 92 96 97 94 81 68 73 63 53 53 60 63 63 65 71 71 68 67 59 60 65 73
86 83 98 97 95 100 100 97 97 100 81 88 96 93 93 90 87 98 99 95 96 96 94 96 98 84 72 68 55 54 60 58 64 57 65 63 62 58 66 67 66 65 61 63
78 87 88 88 91 99 90 100 81 97 89 96 97 96 92 92 88 97 95 97 95 94 98 95 88 77 66 67 66 65 58 63 66 66 59 58 60 56 58 55 50 55 61 61
94 92 93 93 100 92 91 91 90 89 96 99 96 98 97 93 98 94 98 83 96 98 98 93 90 71 67 60 59 67 59 65 71 75 69 68 63 60 59 62 60 62 62 61
93 88 95 97 88 96 96 97 98 92 90 91 97 97 96 99 98 92 94 97 91 90 89 89 90 71 75 79 78 74 75 74 72 66 74 68 64 70 65 51 51 57 63 68
95 98 89 84 96 97 99 98 96 95 92 95 95 92 92 91 96 97 94 93 84 84 92 89 83 71 75 76 69 59 46 41 42 43 43 47 54 58 57 58 60 63 67 73
89 95 86 91 96 91 94 92 88 85 95 98 98 98 93 96 97 95 93 94 86 85 87 88 83 82 52 43 44 49 52 50 44 45 48 54 56 61 67 72 64 66 70 73

GFSNW_925_rhum_129.txt.gz
RH
42 34 35 49 44 44 50 69 75 78 78 75 89 88 63 54 60 59 60 55 56 58 62 63 64 60 57 59 59 64 64 70 88 71 67 66 73 76 73 66 54 85 74 63
58 40 31 45 52 47 59 81 83 74 72 74 93 68 67 59 60 60 60 58 53 52 59 59 57 58 58 60 60 68 63 62 60 40 51 74 81 81 76 67 69 84 60 38
62 51 35 38 50 51 53 62 70 72 83 80 70 66 65 67 59 59 57 57 52 54 57 56 59 62 60 59 57 63 60 71 44 32 24 62 82 86 85 72 89 75 59 38
64 58 43 32 45 56 48 78 76 74 76 74 65 59 62 64 63 60 57 58 55 54 61 61 61 58 70 64 71 72 67 70 82 74 72 63 60 62 86 89 71 63 46 55
67 62 53 41 32 38 49 66 64 78 78 66 55 64 61 57 61 59 57 55 57 59 55 50 60 63 68 64 80 74 83 78 87 96 77 82 89 79 73 69 74 77 68 68
74 65 61 50 44 36 55 74 71 58 74 64 46 53 58 55 54 52 52 55 61 62 61 57 49 53 59 57 80 84 85 88 85 82 73 76 60 66 71 78 76 66 74 54
80 75 66 61 52 47 45 68 61 47 54 59 51 54 54 55 56 54 57 58 56 53 55 56 55 64 69 68 74 78 93 84 88 94 73 47 28 45 55 69 65 70 64 61
82 80 76 71 64 57 54 62 63 59 52 60 48 47 48 51 52 59 58 57 59 63 58 60 48 44 56 81 84 78 80 83 84 89 95 58 33 52 59 53 37 51 64 56
85 81 80 75 72 62 62 68 64 60 73 66 43 47 48 54 53 52 55 65 65 61 71 63 48 48 37 68 85 89 84 79 77 92 92 48 25 36 44 38 42 30 49 43
94 83 80 79 76 71 67 78 70 60 78 71 53 56 51 56 60 56 61 67 70 61 75 63 65 68 52 51 66 98 96 93 93 90 93 77 55 42 44 42 40 36 35 45
95 88 79 79 78 76 73 80 78 76 87 83 62 52 60 68 65 57 58 67 71 82 73 70 67 75 63 60 53 84 93 94 90 76 86 86 53 48 40 42 51 47 52 53
89 90 83 80 77 77 80 81 84 83 87 82 66 61 62 59 56 61 72 56 66 74 74 82 81 79 85 70 59 65 61 67 84 79 73 52 51 50 44 51 54 55 57 54
89 89 87 84 87 98 90 90 89 88 93 87 77 72 69 68 63 62 63 74 69 79 72 79 81 75 79 78 79 59 56 60 63 55 48 58 51 44 46 52 57 57 60 63
90 86 90 89 85 84 97 93 91 84 85 98 82 66 67 67 65 69 67 63 78 82 88 86 87 85 72 77 71 69 58 61 61 65 51 49 51 51 58 58 60 64 63 65
88 90 94 89 81 83 98 97 96 96 86 94 85 78 74 72 68 68 73 74 81 86 86 96 92 89 86 88 88 92 65 58 64 67 62 61 61 60 59 58 58 63 69 69
85 89 88 82 82 89 92 95 84 96 91 95 96 85 77 79 77 78 81 83 87 87 84 87 87 81 83 89 93 65 62 61 57 61 58 64 62 63 53 61 60 61 69 68
85 84 81 81 88 93 90 90 83 80 82 94 97 95 83 81 81 89 91 89 92 89 88 92 88 87 91 97 98 62 64 60 61 60 60 48 47 51 57 59 59 63 69 70
76 71 78 81 96 91 96 86 90 86 85 90 96 93 90 78 89 89 93 95 93 93 92 97 97 91 95 99 85 71 63 58 54 57 59 58 61 64 61 58 68 76 66 62
69 74 83 87 84 87 96 87 86 95 90 100 100 97 97 84 95 94 93 92 91 96 98 97 94 92 98 85 78 66 59 51 50 57 53 50 59 61 63 61 61 63 55 56
81 77 75 96 98 97 96 97 97 99 99 99 99 94 98 87 95 94 93 94 98 98 91 97 99 94 78 72 69 69 64 57 57 77 64 57 63 64 61 59 61 62 61 59
78 85 89 99 99 98 98 97 96 98 98 99 97 97 99 87 92 89 91 93 96 97 92 96 97 94 82 73 75 74 50 44 47 58 63 65 70 73 67 62 57 59 60 65
74 86 96 92 89 97 82 93 96 97 80 87 97 96 94 97 89 97 99 98 97 94 96 97 95 85 70 71 68 59 59 61 67 59 65 59 61 60 66 69 67 64 62 65
80 84 88 82 89 91 99 99 96 95 90 93 97 98 96 98 99 99 98 96 90 95 98 91 90 75 69 62 54 56 52 57 66 69 64 65 67 62 65 63 54 54 58 59
90 92 96 94 98 94 91 91 90 90 96 98 96 98 97 98 98 96 97 87 93 95 100 93 91 83 72 69 65 68 65 64 66 68 66 69 69 65 62 62 63 64 66 61
93 92 97 98 88 96 97 95 99 94 92 97 98 98 96 98 97 95 95 96 87 80 89 88 90 71 74 73 73 72 74 68 83 65 68 61 60 66 56 50 52 56 60 62
95 97 95 89 95 97 99 96 100 96 94 96 95 91 92 88 95 97 90 86 94 85 91 90 80 73 75 72 62 63 62 59 55 55 56 54 55 54 54 57 61 64 66 67
83 97 86 92 98 91 96 98 91 88 95 98 94 97 98 96 95 96 90 94 87 87 87 88 78 68 62 66 57 52 52 60 56 55 52 55 54 60 67 72 67 67 68 69

GFSNW_925_rhum_132.txt.gz
RH
54 39 37 48 43 46 56 69 65 74 76 58 58 69 56 52 57 56 54 47 48 46 52 51 48 43 45 46 48 52 53 46 61 52 58 56 59 52 43 32 39 48 43 29
57 44 36 50 47 48 59 56 58 63 61 63 68 61 59 55 56 56 54 53 48 48 50 50 50 51 53 51 50 50 50 44 40 36 51 60 61 57 52 44 41 48 28 15
61 50 39 44 54 52 48 44 69 49 53 56 47 51 57 60 59 56 54 53 48 49 50 49 52 54 58 53 52 62 49 46 35 20 21 43 57 60 59 47 58 30 32 19
60 57 47 38 51 55 49 53 63 64 62 49 50 50 54 57 56 56 52 52 48 46 47 50 51 52 61 59 69 61 54 53 60 46 43 40 39 37 58 64 48 40 21 25
60 59 52 48 40 40 55 47 46 57 56 55 47 53 52 49 56 53 50 52 50 51 44 40 44 50 54 52 70 60 65 63 70 80 55 60 64 52 50 47 48 45 42 44
62 59 57 51 48 42 56 73 66 41 63 51 38 43 53 50 51 54 49 49 51 54 52 48 48 44 46 46 57 62 65 66 71 54 55 52 42 35 43 49 49 45 51 36
71 62 58 56 52 49 48 65 54 35 46 43 38 51 52 54 53 46 53 51 48 45 50 49 44 49 56 54 62 57 67 65 67 70 49 45 29 37 38 46 42 45 44 39
80 74 64 59 57 56 54 64 61 44 45 44 43 47 47 49 50 55 52 54 50 51 47 46 42 35 51 65 69 65 63 55 57 65 56 34 35 46 46 43 34 36 43 37
86 80 75 67 60 60 63 68 61 55 52 49 35 39 43 42 40 44 56 62 60 52 50 46 36 31 32 50 73 70 69 63 53 60 62 39 24 35 36 33 36 35 38 38
96 84 78 72 67 64 66 74 71 64 61 56 42 43 44 43 45 41 52 64 64 58 52 43 40 42 43 39 50 79 82 76 73 61 64 48 41 39 38 42 43 42 40 40
93 90 78 74 71 68 68 75 76 78 72 65 55 46 48 55 50 47 53 60 64 64 57 50 48 50 45 48 42 66 66 76 73 69 74 74 45 45 42 46 43 42 43 45
88 89 84 78 73 68 70 79 84 83 82 74 71 64 64 58 56 47 64 52 55 54 53 57 55 56 60 48 43 55 51 44 54 53 51 42 44 43 42 42 45 47 52 51
85 89 86 80 78 80 76 84 86 87 82 72 72 67 70 70 66 60 52 59 60 66 62 54 60 60 54 56 55 46 45 46 47 49 45 45 39 40 40 44 47 49 51 54
91 91 87 84 81 80 93 92 89 83 83 85 67 68 70 69 68 70 66 62 75 73 73 70 67 64 54 57 56 57 50 50 47 46 41 45 44 46 46 44 44 47 49 53
100 91 88 88 83 79 96 95 93 92 83 82 78 80 75 73 69 70 75 76 71 71 73 81 76 74 70 67 73 69 51 46 51 49 49 48 46 47 47 45 46 48 55 54
95 86 86 85 79 82 93 88 85 94 91 89 81 85 76 80 78 81 81 80 75 73 69 72 69 72 73 78 72 54 54 51 46 48 48 51 50 48 43 44 43 44 46 45
89 83 82 82 91 96 92 80 80 82 81 88 96 87 79 82 82 84 83 86 82 75 75 80 74 74 80 84 75 56 57 54 51 48 48 43 41 36 40 39 38 46 49 47
87 87 85 97 98 91 97 92 88 83 83 90 98 92 88 79 78 80 85 85 82 85 80 89 86 81 87 94 67 65 60 48 40 40 41 38 43 43 37 44 46 44 37 33
89 88 92 99 89 91 99 93 82 80 85 98 97 88 87 78 85 83 83 80 86 87 91 85 86 80 96 72 70 64 51 38 43 47 42 40 41 38 42 43 43 42 40 35
92 87 76 93 99 95 88 92 89 98 95 96 96 92 93 78 83 85 82 82 84 95 79 93 98 79 66 63 62 54 55 50 50 67 58 50 62 54 45 47 45 47 46 44
90 86 89 100 99 93 92 92 88 88 97 94 95 89 83 78 84 78 80 86 87 92 82 90 82 83 69 63 62 54 42 40 41 46 47 52 54 64 56 48 46 47 48 50
74 85 98 92 88 90 81 89 89 88 80 94 94 90 86 88 85 87 91 88 92 88 84 90 87 68 66 68 71 60 48 51 48 50 52 54 52 50 51 54 58 57 57 60
77 84 94 85 87 94 93 99 89 94 87 86 90 93 88 93 97 96 95 95 92 86 93 80 73 63 60 60 56 52 46 46 52 54 56 59 58 60 62 57 51 48 48 48
88 90 95 87 94 88 83 78 80 78 85 87 88 93 89 90 95 90 94 88 88 92 88 84 70 61 55 52 52 56 51 49 51 64 62 67 66 59 54 56 54 53 53 51
91 88 74 95 76 87 89 88 92 88 83 89 94 93 87 93 95 87 93 94 86 78 80 71 68 62 60 61 59 57 55 59 71 63 62 63 64 64 55 50 48 50 54 57
91 94 90 83 89 92 97 94 96 89 87 94 93 88 93 89 89 93 91 88 83 74 80 72 62 65 63 62 59 52 41 42 47 55 57 63 65 60 54 54 59 60 61 62
90 91 87 82 86 83 83 88 84 84 90 94 92 98 96 90 94 92 81 88 75 74 71 65 65 61 53 50 49 48 53 49 47 50 53 60 59 64 70 71 60 61 65 68